Location: Exeidioux
(45.6312°N, 1.6819°E)
Time: 20:51:18
(UTC+00:00)

CSL-04 Debris - Pass Details

Date: 03 March 2021
Orbit: 826 x 848 km, 98.9° (Epoch: 13 April)

Event Time Altitude Azimuth Distance (km) Brightness Sun altitude
Rises 18:23:12 0° 148° (SSE) 3,372 7.0 -7.8°
Reaches altitude 10° 18:25:36 10° 143° (SE) 2,445 6.3 -8.2°
Maximum altitude 18:30:50 51° 69° (ENE) 1,048 4.4 -9.1°
Drops below altitude 10° 18:36:07 10° 355° (N) 2,475 6.7 -10.1°
Sets 18:38:33 0° 350° (N) 3,417 7.5 -10.5°
